Back to catalog

STARLINK-11454

AliveCommunicationsVLEO
NORAD 62059·PAYLOAD·🇺🇸 United States

Launched Nov 24, 2024 from Vandenberg Space Force Base

Loading…

Next Passes (next 24 hours)

TLE

FreshSource: CelesTrak SupGP

Epoch: Sep 14, 2026, 22:45 UTC

1 62059C 24217C   26257.94840278  .00050124  00000+0  41262-3 0  2578
2 62059  53.1572 218.4103 0001081  99.0761  21.1766 15.69699823    10

Track STARLINK-11454 in real time with AllMySat

Download on the App Store